1998-067RA

Last updated on Tue May 03 2022 00:02:04 GMT+0000 (Coordinated Universal Time)

1 45257U 98067RA 22122.29829316 .02137184 11898-4 98376-3 0 9995 2 45257 51.6172 143.7991 0005614 10.1977 349.9154 16.21080189125292

Satellite not in orbit

1998-067RA